User: anonymous   Login
Location: Unspecified
(0.0000°N, 0.0000°E)
Time: 06:51:23
(UTC+00:00)
Language:

AGGIESAT 4 - Orbit

View from above orbital plane
View from above orbital plane
View from above satellite
View from above satellite

Ground track
Ground track

The orbit data is extracted from the following two-line orbital elements,

1 41314U 98067HQ  17087.91090011 +.00133940 +00000-0 +54003-3 0  9992
2 41314 051.6257 037.4325 0003241 145.4767 214.6447 15.85461707066328
Epoch (UTC): 28 March 2017 21:51:41
Eccentricity: 0.0003241
inclination: 51.6257°
perigee height: 313 km
apogee height: 317 km
right ascension of ascending node: 37.4325°
argument of perigee: 145.4767°
revolutions per day: 15.85461707
mean anomaly at epoch: 214.6447°
orbit number at epoch: 6632

The dashed part of the orbit path shows where the satellite is in the earth's shadow,  

DLR